sat.trackr.live / text

‹ back to catalog

2025-155L

NORAD 64886 · 2025-155L

PAYLOAD ACTIVE UNKNOWN

§ Identity

Operator
Country
TBD
Launch date
2025-07-25
Launch site
VOSTO
Launch vehicle
Mass (kg)
RCS (m²)

External: N2YO · Heavens-Above · Gunter

§ Orbital elements

Epoch: 2026-05-25T04:44:34.569312Z

Period
93.50 min
Inclination
97.4453°
Eccentricity
0.0004271
Mean motion
15.40111160 rev/d
Perigee alt
442.9 km
Apogee alt
448.7 km
Semi-major
6,823.9 km
B*
7.9360e-4
RAAN
115.6641°
Arg perigee
222.5381°
Mean anomaly
137.5534°
Rev number
7,739

§ Raw data

2025-155L1 64886U 25155L   26145.19762233  .00031794  00000+0  79360-3 0  99922 64886  97.4453 115.6641 0004271 222.5381 137.5534 15.40111160 77391

JSON: /api/v1/satellites/64886 · /tle

For live sub-satellite position, see the globe view (requires WebGL).

§ Visibility from observer

Set your observer location to see the next 7 days of passes ≥ 10°. The values pass through the URL so the page stays shareable.

No JS? Fill the form by hand. The geolocation button needs JavaScript.